Regional Weather Roundup
Issued by NWS

Home | Current Version | Previous Version | Text Only | Print | Product List | Glossary On
Versions: 1 2 3 4 5 6 7 8 9 10 11 12 13 14 15 16 17 18 19 20 21 22 23 24 25 26 27 28 29 30 31 32 33 34 35 36 37 38 39 40 41 42 43 44 45 46 47 48 49 50
248
ASUS43 KMKX 250420
RWRWI

WISCONSIN REGIONAL WEATHER ROUNDUP
NATIONAL WEATHER SERVICE MILWAUKEE/SULLIVAN WI
1100 PM CDT TUE APR 24 2018

NOTE: "FAIR" INDICATES FEW OR NO CLOUDS BELOW 12,000 FEET WITH NO
SIGNIFICANT WEATHER AND/OR OBSTRUCTIONS TO VISIBILITY.

WIZ001-002-006>008-014>016-023>028-250500-
NORTHWEST WISCONSIN

CITY           SKY/WX    TMP DP  RH WIND       PRES   REMARKS
SUPERIOR ARPT  FAIR      39  24  55 NE6       30.29R WCI  34
ASHLAND        FAIR      38  26  62 N12       30.27R WCI  30
HAYWARD        FAIR      43  27  53 N13       30.23R
SIREN          FAIR      44  25  48 NE8       30.25R
CUMBERLAND     FAIR      41  27  56 N8        30.21S
RICE LAKE      FAIR      39  31  74 N6        30.22S WCI  35
CHETEK         FAIR      35  33  91 W3        30.21R
LADYSMITH      FAIR      33  30  90 N3        30.21S
EAU CLAIRE     FAIR      40  34  79 CALM      30.19S
MENOMONIE      FAIR      42  36  78 CALM      30.20S
NEW RICHMOND   FAIR      40  29  65 N9        30.22R WCI  34
OSCEOLA        FAIR      45  28  50 N6        30.25R
$$

WIZ003>005-009-010-017-018-250500-
NORTH CENTRAL WISCONSIN

CITY           SKY/WX    TMP DP  RH WIND       PRES   REMARKS
MANITOWISH WTR FAIR      29  29 100 CALM      30.18S
ARBOR VITAE    FOG       32  31  96 CALM      30.18S VSB 3/4
WOODRUFF       FOG       32  31  96 CALM      30.18S VSB 3/4
RHINELANDER    FAIR      36  36 100 N3        30.18S
EAGLE RIVER    FOG       30  30 100 CALM      30.17S VSB 1/2
LAND O LAKES   FAIR      33  33 100 N6        30.19S WCI  27
PHILLIPS       FAIR      28  28 100 CALM      30.18F
TOMAHAWK       FOG       30  29  96 CALM      30.19S VSB 3/4
MEDFORD        FAIR      35  34  93 NE5       30.17S WCI  31
MERRILL        FAIR      37  37 100 N3        30.18S
$$

WIZ029-030-035-036-043>047-250500-
CENTRAL WISCONSIN

CITY           SKY/WX    TMP DP  RH WIND       PRES   REMARKS
WAUSAU         CLOUDY    42  39  89 N6        30.14S
MOSINEE        CLOUDY    41  39  93 N12       30.16S
MARSHFIELD     MOCLDY    43  37  79 N9        30.15S
STEVENS POINT  CLOUDY    42  38  84 N6        30.16R
WAUPACA        CLOUDY    50  32  49 N6        30.15R
WAUTOMA        CLOUDY    51  30  44 NE9       30.13
WISC RAPIDS    CLOUDY    47  34  60 NE9       30.16R
CAMP DOUGLAS   CLOUDY    50  36  57 N13       30.15
$$

WIZ011>013-019>022-031-037>040-048>050-250500-
NORTHEAST WISCONSIN

CITY           SKY/WX    TMP DP  RH WIND       PRES   REMARKS
ANTIGO         CLOUDY    38  38 100 N3        30.16F
SHAWANO        CLOUDY    47  35  63 N12       30.15S
OCONTO         CLOUDY    46  29  50 N6        30.14R
STURGEON BAY   CLOUDY    44  31  60 N15G23    30.14S
GREEN BAY      CLOUDY    44  31  60 NE15      30.14R
MANITOWOC      FAIR      45  30  55 N10       30.13R
APPLETON       CLOUDY    46  25  42 NE10G17   30.12R
CLINTONVILLE   CLOUDY    47  30  51 N12       30.15R
OSHKOSH        CLOUDY    48  33  56 NE15      30.12R
$$

WIZ032>034-041-042-053>061-250500-
SOUTHWEST WISCONSIN

CITY           SKY/WX    TMP DP  RH WIND       PRES   REMARKS
LA CROSSE      MOCLDY    52  36  54 N10       30.18R
SPARTA         CLOUDY    50  37  62 N10       30.18S
VIROQUA        FAIR      47  36  66 N9        30.15R
BOSCOBEL       CLOUDY    58  31  35 NE15G25   30.12R
PRAIRIE DU CHI FAIR      58  30  34 N13G23    30.11R
PLATTEVILLE    CLOUDY    60  41  49 N18G24    30.06R
$$

WIZ056-057-062-063-064-067-068-250500-
SOUTH CENTRAL WISCONSIN

CITY           SKY/WX    TMP DP  RH WIND       PRES   REMARKS
REEDSBURG      CLOUDY    51  32  48 N15G23    30.12R
BARABOO/DELLS  CLOUDY    54  32  43 NE10G23   30.11R
LONE ROCK      CLOUDY    56  34  43 N16G26    30.10R
MINERAL POINT  FAIR      59  34  38 N18G26    30.07R
MADISON        CLOUDY    56  43  61 NE15G25   30.07R
MIDDLETON      CLOUDY    59  38  45 NE21G26   30.06R
WATERTOWN      FAIR      49  33  55 NE9       30.08R
MONROE         CLOUDY    57  30  35 N7        30.04R
JANESVILLE     MOCLDY    52  45  76 NE7       30.04R
$$

WIZ051-052-058>065-066-070>072-250500-
SOUTHEAST WISCONSIN

CITY           SKY/WX    TMP DP  RH WIND       PRES   REMARKS
MILWAUKEE      FAIR      44  33  65 N21G31    30.07R
WAUKESHA       FAIR      45  30  57 NE12G17   30.08R
MILWAUKEE/TIMM FAIR      46  27  46 NE20G30   30.08R
RACINE         FAIR      42  35  76 N20G29    30.07R
BURLINGTON     FAIR      48  39  72 NE12      30.06R
KENOSHA        FAIR      46  41  82 N10       30.05R
FOND DU LAC    CLOUDY    49  35  58 N16       30.11R
SHEBOYGAN      MOCLDY    46  31  55 NE29G38   30.10R
WEST BEND      MOCLDY    45  30  57 NE14G25   30.09R
JUNEAU         CLOUDY    48  32  55 N8        30.11R
$$

LSZ147-162-250500-
LAKE SUPERIOR

STATION/POSITION TIME  TEMP    WIND        PRES    WAVE
                       AIR SEA DIR/SP/G            HT/PER
                 (UTC) (F)     (DEG/KT/KT) (MB)    (FT/S)
DEVILS ISLAND    0400   37      30/ 10/ 11 1025.9R
SAXON HARBOR     0340   34     200/  2/  4 1024.0R
$$

LMZ867-665-643>646-250500-
LAKE MICHIGAN

STATION/POSITION TIME  TEMP    WIND        PRES    WAVE
                       AIR SEA DIR/SP/G            HT/PER
                 (UTC) (F)     (DEG/KT/KT) (MB)    (FT/S)
NORTHPORT PIER   0340   38                 1020.3S
KEWAUNEE LAKESHO 0354   45      10/  8/ 11 1019.5R
SHEBOYGAN LAKESH 0400   42      10/ 26/ 28 1019.5R
PORT WASHINGTON  0400   47      20/ 14/ 27 1019.6
MILWAUKEE LAKESH 0400   43      10/ 22/ 25   N/A
KENOSHA   LAKESH 0400   45                 1017.3
$$

TC  - TEMPERATURE IN CELSIUS
VSB - VISIBILITY IN STATUTE MILES
WCI - WIND CHILL INDEX
HX  - HEAT INDEX





USA.gov is the U.S. government's official web portal to all federal, state and local government web resources and services.